Abilene Dyess, TX

9:59 PM CST on November 19, 2019 (GMT -0600)
Dyess Air Force Base

Weather History for KDYS - July, 2019

Change the Weather History Date:

Wednesday, July 10, 2019

  Actual Average Record
Temperature  
Mean Temperature 88 °F -  
Max Temperature 102 °F 94 °F 104 °F (1998)
Min Temperature 73 °F 72 °F 68 °F (2017)
Cooling Degree Days 22    
Growing Degree Days 38 (Base 50)    
Moisture  
Dew Point 64 °F    
Average Humidity 48    
Maximum Humidity 73    
Minimum Humidity 25    
Precipitation  
Precipitation 0.00 in - - ()
Sea Level Pressure  
Sea Level Pressure 29.84 in    
Wind  
Wind Speed 7 mph (SSE)    
Max Wind Speed 16 mph    
Max Gust Speed 22 mph    
Visibility 10 miles    
Events Rain    
Averages and records for this station are not official NWS values.
T = Trace of Precipitation, MM = Missing Value Source: NWS Daily Summary

Daily Weather History Graph

Daily Weather History Graph

Search for Another Location

Airport or City:

Astronomy

Jul. 10, 2019 Rise Set
Actual Time 6:40 AM CDT 8:49 PM CDT
Civil Twilight 6:12 AM CDT 9:17 PM CDT
Nautical Twilight 5:37 AM CDT 9:51 PM CDT
Astronomical Twilight 5:00 AM CDT 10:28 PM CDT
Moon 3:10 PM CDT (7/10) 2:05 AM CDT (7/10)
Length of Visible Light 15h 05m
Length of Day
14h 09m
Waxing Gibbous, 64% of the Moon is Illuminated
Jul 10
Waxing Gibbous
Jul 16
Full
Jul 24
Last Quarter
Jul 31
New
Aug 7
First Quarter

Hourly Weather History & Observations

Time (CDT) Temp. Heat Index Dew Point Humidity Pressure Visibility Wind Dir Wind Speed Gust Speed Precip Events Conditions
12:56 AM 82.6 °F 83.9 °F 63.7 °F 53% 29.78 in 10.0 mi South 6.9 mph - N/A   Clear
1:56 AM 78.1 °F - 63.0 °F 60% 29.78 in 10.0 mi SSE 5.8 mph - N/A   Clear
2:56 AM 76.5 °F - 62.1 °F 61% 29.79 in 10.0 mi SSE 8.1 mph - N/A   Clear
3:56 AM 74.1 °F - 63.3 °F 69% 29.79 in 10.0 mi SSE 6.9 mph - N/A   Clear
4:56 AM 73.4 °F - 63.0 °F 70% 29.80 in 10.0 mi SSE 5.8 mph - N/A   Partly Cloudy
5:56 AM 73.8 °F - 62.1 °F 67% 29.81 in 10.0 mi SE 8.1 mph - N/A   Scattered Clouds
6:56 AM 73.8 °F - 64.6 °F 73% 29.82 in 10.0 mi SSE 8.1 mph - N/A   Clear
7:56 AM 79.7 °F - 66.9 °F 65% 29.83 in 10.0 mi SSE 5.8 mph - N/A   Clear
8:56 AM 83.8 °F 87.0 °F 68.4 °F 59% 29.85 in 10.0 mi South 9.2 mph - N/A   Clear
9:56 AM 87.4 °F 91.5 °F 68.7 °F 54% 29.87 in 10.0 mi South 8.1 mph - N/A   Clear
10:56 AM 91.2 °F 95.5 °F 68.7 °F 47% 29.87 in 10.0 mi South 9.2 mph - N/A   Clear
11:56 AM 93.9 °F 97.5 °F 67.3 °F 41% 29.87 in 10.0 mi SW 5.8 mph - N/A   Clear
12:56 PM 96.3 °F 99.1 °F 64.9 °F 36% 29.87 in 10.0 mi East 4.6 mph - N/A   Partly Cloudy
1:56 PM 99.0 °F 99.5 °F 60.1 °F 28% 29.86 in 10.0 mi WSW 4.6 mph - N/A   Mostly Cloudy
2:56 PM 100.2 °F 101.5 °F 61.2 °F 28% 29.84 in 10.0 mi South 5.8 mph - N/A   Partly Cloudy
3:56 PM 101.3 °F 101.6 °F 59.9 °F 25% 29.82 in 10.0 mi ENE 8.1 mph - N/A   Clear
4:56 PM 102.0 °F 102.7 °F 59.5 °F 25% 29.79 in 10.0 mi Calm Calm - N/A   Clear
5:56 PM 100.0 °F 99.7 °F 58.8 °F 25% 29.80 in 10.0 mi Calm Calm - N/A   Clear
6:56 PM 99.3 °F 101.7 °F 63.3 °F 31% 29.81 in 10.0 mi ENE 11.5 mph 18.4 mph N/A   Clear
7:56 PM 95.4 °F 96.2 °F 62.4 °F 33% 29.80 in 10.0 mi East 8.1 mph - N/A   Clear
8:56 PM 92.1 °F 93.2 °F 63.5 °F 38% 29.84 in 10.0 mi ESE 6.9 mph - N/A   Scattered Clouds
9:56 PM 85.1 °F 86.9 °F 64.9 °F 51% 29.88 in 10.0 mi South 5.8 mph - N/A   Clear
10:33 PM 84.2 °F 85.6 °F 64.4 °F 51% 29.89 in 10.0 mi SE 5.8 mph - N/A Rain Light Rain
10:42 PM 86.0 °F 87.3 °F 64.4 °F 48% 29.90 in 10.0 mi ESE 6.9 mph - N/A   Partly Cloudy
10:56 PM 85.8 °F 87.6 °F 65.5 °F 50% 29.90 in 10.0 mi ESE 16.1 mph 21.9 mph N/A   Partly Cloudy
11:56 PM 82.0 °F 83.4 °F 63.7 °F 54% 29.92 in 10.0 mi SE 13.8 mph - N/A   Clear